Showing default

LEMUR 2 VALHALLA, 58900

Orbit data source: Space-Track

LEMUR 2 VALHALLA, 58900 is an American payload satellite in SSO that was launched on Wed, 31 Jan 2024 UTC via an ELECTRON launch vehicle from the Rocket Lab Launch Complex (RLLC). Payload-class satellites include a variety of spacecraft equipped with specific instruments for various scientific and technological missions. These include communications satellites like Starlink; space stations such as the ISS; scientific satellites like the Hubble; Earth observation satellites from companies like Planet Labs, Umbra, and HawkEye 360; GPS; miniature CubeSats for education and research; and military/defense satellites.

Loading next visibility...
Identifier
58900, 2024-022B
Orbit
SSO
Last TLE update
17 hours ago
Origin
Manufacturer
Spire/Glasgow
Mission
Operational Commercial Early Warn
Bus & Motor
CUBESAT 3U, Unknown motor
Mass
~25 kg wet, ~25 kg dry
Launch date (UTC)
2024-01-31 (1 year ago)
Launch vehicle
ELECTRON
Launch site
Rocket Lab Launch Complex (RLLC)
Object type
Payload
Rocket body
Debris
Shape & HBR
Box + 2 Pan, 1 m
Radar Cross Section
0.146 m², Medium (>0.1 m² and < 1m²)

Expand to show TLE details & history

TLE from 17 hours ago
0 LEMUR 2 VALHALLA
1 58900U 24022B   25128.50142656  .00012817  00000-0  48819-3 0  9991
2 58900  97.4519 331.7413 0014011 115.3019 244.9673 15.26765321 70288
Epoch: 2025-05-08T12:02Z
Definitive object data (Epoch: 2025-05-08T12:02:03.254Z)
Latitude
-0.00003°
Longitude
-75.34327°
Altitude
492.669 km
Speed
7.616 km/s
True Right ascension
22h 06m 57s
True Declination
0° 00' 00"
Sunlit
Object was in daylight at TLE epoch
Visualization TLE readout
Latitude
-31.36501°
Longitude
-70.08172°
Altitude
505.104 km
Speed
7.606 km/s
Apparent Right ascension
23h 46m 01s
Apparent Declination
-37° 16' 08"
Sunlit
Object is in daylight
Visualization observer readout
Local Sidereal Time
13:20:33
Azimuth
89.397° E
Elevation
-71.395°
Doppler factor
1
Orbital elements
Apogee altitude
492.061 km
Perigee altitude
472.836 km
Semi-major axis
6,860.585 km
Eccentricity
0.0014011
Inclination
97.4519°
RAAN
331.7413°
Arg. of periapsis
115.3019°
True anomaly
244.82194°
Mean anomaly
244.9673°
Eccentric anomaly
244.89461°
Mean motion
3.81946 °/min
BSTAR
0.00048819
Orbital period
94.25 mins
Loading maneuver chart data...
Loading SW <> Apogee altitude chart data...
Loading historical data...
Loading historical data...
Loading historical data...
Loading historical data...
Loading historical data...
Loading historical data...
Loading historical data...

LEMUR 2 VALHALLA Visibility forecast

Observer location: undefined°, undefined°

Span
Click to sort rows by Start time (UTC) header in descending order
Start Az.
Max El. time (UTC)
Max El. Az.
Max El.
End time (UTC)
End Az.
6 mins2025-05-09 13:19:55.587Z152.194° SSE2025-05-09 13:22:55.587Z62.822° ENE39.998°2025-05-09 13:25:55.587Z357.417° N
5 mins2025-05-10 02:21:55.587Z16.16° NNE2025-05-10 02:23:55.587Z167.622° S43.731°2025-05-10 02:26:55.587Z190.356° SSW
|